Back to catalog

SL-12 DEB

LostHEO
NORAD 28583·DEBRIS·🇷🇺 Russia

Launched Jul 30, 1992 from Baikonur Cosmodrome

Loading…

Next Passes (next 24 hours)

TLE

StaleSource: Space-Track

Epoch: Feb 3, 2021, 09:23 UTC

1 28583U 92047S   21034.39131492 -.00000016  00000-0  00000+0 0  9997
2 28583  63.6353  37.0500 3749133 146.0175 244.9970  5.88834793280047

Track SL-12 DEB in real time with AllMySat

Download on the App Store